Regional Weather Roundup
Issued by NWS

Home | Current Version | Previous Version | Graphics & Text | Print | Product List | Glossary Off
Versions: 1 2 3 4 5 6 7 8 9 10 11 12 13 14 15 16 17 18 19 20 21 22 23 24 25 26 27 28 29 30 31 32 33 34 35 36 37 38 39 40 41 42 43 44 45 46 47 48 49 50

000
ASUS43 KDMX 280107
RWRIA

WEATHER ROUNDUP FOR IOWA
NATIONAL WEATHER SERVICE DES MOINES IA
800 PM CDT FRI MAR 27 2015

NOTE: "FAIR" INDICATES FEW OR NO CLOUDS BELOW 12,000 FEET WITH NO
SIGNIFICANT WEATHER AND/OR OBSTRUCTIONS TO VISIBILITY.

* - THESE STATIONS ARE NOT NWS STATIONS...THUS NOT UNDER NWS
QUALITY CONTROL.  THEY ALSO DO NOT REPORT WEATHER SUCH
AS PRECIPITATION OR FOG.

IAZ001>003-012>014-020>022-031>034-043>046-280200-
   NORTHWEST IOWA

CITY           SKY/WX    TMP DP  RH WIND       PRES   REMARKS
CARROLL *      CLOUDY    37  12  35 SW5       30.11F WCI  34
CHEROKEE *     CLOUDY    36  12  38 S7        30.11S WCI  30
DENISON *      CLOUDY    36  12  38 SW6       30.10F WCI  31
LE MARS *      CLOUDY    34  23  64 S8        30.09F WCI  27
ORANGE CITY *  CLOUDY    36  19  51 S3        30.07F
SHELDON *      CLOUDY    32  18  55 SE8       30.08S WCI  25
SIOUX CITY     CLOUDY    34  23  64 SE7       30.10F WCI  28
SPENCER        CLOUDY    34  18  52 SW6       30.10F WCI  29
STORM LAKE *   CLOUDY    34  14  44 W8        30.11S WCI  27
$$

IAZ055>058-069>071-079>083-090>094-280200-
   SOUTHWEST IOWA

CITY           SKY/WX    TMP DP  RH WIND       PRES   REMARKS
ATLANTIC *     CLOUDY    37  16  41 SW7       30.13F WCI  32
AUDUBON *      CLEAR     37  16  41 W6        30.13S WCI  33
CLARINDA *     CLOUDY    37  21  52 SW5       30.16F WCI  34
COUNCIL BLFS * CLOUDY    36  19  51 CALM      30.13F
CRESTON *      CLOUDY    36  16  44 CALM      30.13F
HARLAN  *      MOCLDY    36  18  48 CALM      30.15F
LAMONI         CLOUDY    37  20  50 W3        30.14S
RED OAK *      CLOUDY    37  21  52 SW7       30.14F WCI  32
SHENANDOAH *   CLOUDY    37  19  48 W6        30.15F WCI  33
$$

IAZ047>049-059>061-072>074-084-280200-
   CENTRAL IOWA

CITY           SKY/WX    TMP DP  RH WIND       PRES   REMARKS
AMES           CLOUDY    34  15  46 E3        30.15R
ANKENY *       CLOUDY    37  10  32 CALM      30.16R
CHARITON *     CLOUDY    37  12  35 CALM      30.15S
DES MOINES     CLOUDY    38   8  29 CALM      30.16R
GRINNELL*      PTCLDY    30  12  47 CALM      30.15S
KNOXVILLE *    CLOUDY    37   9  30 CALM      30.14S
MARSHALLTOWN   PTCLDY    32  15  49 CALM      30.15R
PELLA *        MOCLDY    34  14  44 CALM      30.17R
PERRY *        CLOUDY    36  12  38 CALM      30.13F
$$

IAZ004>006-015-016-023>025-035-036-280200-
   NORTH CENTRAL IOWA

CITY           SKY/WX    TMP DP  RH WIND       PRES   REMARKS
ALGONA *       CLOUDY    32  19  59 SE5       30.13F WCI  27
CLARION *      PTCLDY    32  14  47 CALM      30.14S
ESTHERVILLE    CLOUDY    32  17  54 SW3       30.10F
FORT DODGE *   CLOUDY    36  12  38 CALM      30.14S
MASON CITY     MOCLDY    31  15  52 CALM      30.15S
FOREST CITY *  CLEAR     32  18  55 SW3       30.13S
IOWA FALLS *     N/A     32  21  64 CALM      30.15S
$$

IAZ007>011-017>019-026>030-037>042-050>054-066-280200-
   NORTHEAST IOWA

CITY           SKY/WX    TMP DP  RH WIND       PRES   REMARKS
CEDAR RAPIDS   CLEAR     31  12  45 N3        30.16R
CHARLES CITY * PTCLDY    27  14  59 E7        30.16F WCI  19
CLINTON *      CLEAR     27  14  59 NE7       30.20S WCI  19
DECORAH *      CLEAR     27  12  54 CALM      30.16R
DUBUQUE        CLEAR     28   8  43 NE5       30.16R WCI  23
MONTICELLO *   CLEAR     30  12  47 N3        30.17R
OELWEIN *      CLEAR     27  16  63 NE6       30.17S WCI  20
WATERLOO       PTCLDY    26  15  63 NE8       30.16R WCI  18
$$

IAZ064-065-067-068-078-280200-
   EAST CENTRAL IOWA

CITY           SKY/WX    TMP DP  RH WIND       PRES   REMARKS
DAVENPORT      CLEAR     28  10  46 NE6       30.18R WCI  22
IOWA CITY      CLEAR     32  11  41 NE6       30.18S WCI  26
MT. PLEASANT * PTCLDY    30  10  43 NE6       30.17R WCI  24
MUSCATINE *    CLEAR     32  12  43 NE5       30.18S WCI  27
QUAD CITIES    CLEAR     33   8  35 NE5       30.17R WCI  29
$$

IAZ062-063-075>077-085>089-095>099-280200-
   SOUTHEAST IOWA

CITY           SKY/WX    TMP DP  RH WIND       PRES   REMARKS
BURLINGTON     CLEAR     32  10  40 NE5       30.16S WCI  27
FAIRFIELD *    PTCLDY    32  10  40 NE5       30.16S WCI  27
FORT MADISON * CLEAR     34  10  37 CALM      30.17S
OSKALOOSA *      N/A     32  14  47 E5        30.16R WCI  27
CENTERVILLE *  CLEAR     36  10  35 CALM      30.16R
OTTUMWA        MOCLDY    33  11  39 E5        30.15S WCI  29
WASHINGTON *   CLEAR     32  10  40 CALM      30.17R
$$

ABBREVIATIONS USED IN REMARKS
   TC - TEMPERATURES IN CELSIUS
  WCI - WIND CHILL INDEX
   HX - HEAT INDEX
  VSB - VISIBILITY
$$



USA.gov is the U.S. government's official web portal to all federal, state and local government web resources and services.